Time,TemperatureF,DewpointF,PressureIn,WindDirection,WindDirectionDegrees,WindSpeedMPH,WindSpeedGustMPH,Humidity,HourlyPrecipIn,Conditions,Clouds,dailyrainin,SoftwareType,DateUTC
2013-11-28 00:01:00,32.0,24.0,29.64,WNW,294,11.0,19.0,73,0.00,,,0.04,weatherlink.com 1.10,2013-11-28 05:01:00,
2013-11-28 00:16:00,31.5,23.0,29.66,NW,316,9.0,21.0,71,0.00,,,0.04,weatherlink.com 1.10,2013-11-28 05:16:00,
2013-11-28 00:31:00,31.1,23.0,29.67,NW,306,6.0,14.0,71,0.00,,,0.04,weatherlink.com 1.10,2013-11-28 05:31:00,
2013-11-28 00:46:00,30.7,22.0,29.68,NNW,334,6.0,14.0,71,0.00,,,0.04,weatherlink.com 1.10,2013-11-28 05:46:00,
2013-11-28 01:01:00,30.5,22.0,29.70,WNW,284,13.0,14.0,72,0.00,,,0.04,weatherlink.com 1.10,2013-11-28 06:01:00,
2013-11-28 01:16:00,30.2,23.0,29.71,NW,306,5.0,11.0,73,0.00,,,0.04,weatherlink.com 1.10,2013-11-28 06:16:00,
2013-11-28 01:31:00,30.0,22.0,29.72,NW,316,6.0,10.0,72,0.00,,,0.04,weatherlink.com 1.10,2013-11-28 06:31:00,
2013-11-28 01:46:00,29.9,22.0,29.73,NNW,330,10.0,15.0,72,0.00,,,0.04,weatherlink.com 1.10,2013-11-28 06:46:00,
2013-11-28 02:01:00,29.8,22.0,29.74,NW,321,5.0,12.0,72,0.00,,,0.04,weatherlink.com 1.10,2013-11-28 07:01:00,
2013-11-28 02:16:00,29.6,22.0,29.75,NW,316,4.0,14.0,72,0.00,,,0.04,weatherlink.com 1.10,2013-11-28 07:16:00,
2013-11-28 02:31:00,29.0,20.0,29.76,NNW,334,21.0,24.0,68,0.00,,,0.04,weatherlink.com 1.10,2013-11-28 07:31:00,
2013-11-28 02:47:00,28.1,19.0,29.77,NW,313,9.0,21.0,68,0.00,,,0.04,weatherlink.com 1.10,2013-11-28 07:47:00,
2013-11-28 03:02:00,27.6,18.0,29.79,West,269,11.0,23.0,68,0.00,,,0.04,weatherlink.com 1.10,2013-11-28 08:02:00,
2013-11-28 03:17:00,27.0,18.0,29.81,NW,317,7.0,18.0,69,0.00,,,0.04,weatherlink.com 1.10,2013-11-28 08:17:00,
2013-11-28 03:32:00,26.5,18.0,29.81,NW,315,14.0,19.0,70,0.00,,,0.04,weatherlink.com 1.10,2013-11-28 08:32:00,
2013-11-28 03:47:00,26.2,18.0,29.84,WNW,303,11.0,18.0,70,0.00,,,0.04,weatherlink.com 1.10,2013-11-28 08:47:00,
2013-11-28 04:02:00,26.0,18.0,29.86,West,274,9.0,16.0,71,0.00,,,0.04,weatherlink.com 1.10,2013-11-28 09:02:00,
2013-11-28 04:17:00,26.0,18.0,29.87,WNW,302,8.0,20.0,71,0.00,,,0.04,weatherlink.com 1.10,2013-11-28 09:17:00,
2013-11-28 04:32:00,26.2,18.0,29.89,North,350,5.0,16.0,70,0.00,,,0.04,weatherlink.com 1.10,2013-11-28 09:32:00,
2013-11-28 04:47:00,26.4,17.0,29.90,WNW,289,5.0,11.0,68,0.00,,,0.04,weatherlink.com 1.10,2013-11-28 09:47:00,
2013-11-28 05:02:00,26.2,15.0,29.91,NW,309,7.0,19.0,64,0.00,,,0.04,weatherlink.com 1.10,2013-11-28 10:02:00,
2013-11-28 05:17:00,26.0,15.0,29.93,WNW,288,11.0,18.0,63,0.00,,,0.04,weatherlink.com 1.10,2013-11-28 10:17:00,
2013-11-28 05:32:00,25.6,15.0,29.95,NW,309,8.0,14.0,65,0.00,,,0.04,weatherlink.com 1.10,2013-11-28 10:32:00,
2013-11-28 05:47:00,25.1,16.0,29.96,WNW,288,8.0,12.0,69,0.00,,,0.04,weatherlink.com 1.10,2013-11-28 10:47:00,
2013-11-28 06:02:00,24.8,16.0,29.98,WNW,295,7.0,17.0,70,0.00,,,0.04,weatherlink.com 1.10,2013-11-28 11:02:00,
2013-11-28 06:17:00,24.7,15.0,29.98,West,273,17.0,20.0,68,0.00,,,0.04,weatherlink.com 1.10,2013-11-28 11:17:00,
2013-11-28 06:32:00,24.7,15.0,30.00,NNW,341,7.0,14.0,66,0.00,,,0.04,weatherlink.com 1.10,2013-11-28 11:32:00,
2013-11-28 06:47:00,24.5,15.0,30.01,NNW,327,4.0,10.0,67,0.00,,,0.04,weatherlink.com 1.10,2013-11-28 11:47:00,
2013-11-28 07:02:00,24.4,14.0,30.02,WNW,298,6.0,8.0,66,0.00,,,0.04,weatherlink.com 1.10,2013-11-28 12:02:00,
2013-11-28 07:17:00,24.5,15.0,30.04,NW,315,5.0,11.0,67,0.00,,,0.04,weatherlink.com 1.10,2013-11-28 12:17:00,
2013-11-28 07:33:00,24.5,15.0,30.05,NW,305,3.0,8.0,67,0.00,,,0.04,weatherlink.com 1.10,2013-11-28 12:33:00,
2013-11-28 07:48:00,24.6,15.0,30.08,West,270,6.0,10.0,66,0.00,,,0.04,weatherlink.com 1.10,2013-11-28 12:48:00,
2013-11-28 08:03:00,24.9,15.0,30.09,West,277,7.0,13.0,65,0.00,,,0.04,weatherlink.com 1.10,2013-11-28 13:03:00,
2013-11-28 08:18:00,25.3,15.0,30.10,WNW,301,7.0,16.0,65,0.00,,,0.04,weatherlink.com 1.10,2013-11-28 13:18:00,
2013-11-28 08:33:00,25.7,15.0,30.10,NW,319,9.0,16.0,65,0.00,,,0.04,weatherlink.com 1.10,2013-11-28 13:33:00,
2013-11-28 08:48:00,26.1,15.0,30.11,WNW,298,6.0,16.0,63,0.00,,,0.04,weatherlink.com 1.10,2013-11-28 13:48:00,
2013-11-28 09:03:00,26.4,15.0,30.12,North,351,8.0,15.0,63,0.00,,,0.04,weatherlink.com 1.10,2013-11-28 14:03:00,
2013-11-28 09:18:00,27.0,15.0,30.13,NNW,329,6.0,10.0,62,0.00,,,0.04,weatherlink.com 1.10,2013-11-28 14:18:00,
2013-11-28 09:33:00,27.4,15.0,30.14,NW,317,12.0,14.0,61,0.00,,,0.04,weatherlink.com 1.10,2013-11-28 14:33:00,
2013-11-28 09:48:00,27.5,16.0,30.16,NW,311,6.0,16.0,61,0.00,,,0.04,weatherlink.com 1.10,2013-11-28 14:48:00,
2013-11-28 10:03:00,27.9,16.0,30.16,North,350,7.0,17.0,61,0.00,,,0.04,weatherlink.com 1.10,2013-11-28 15:03:00,
2013-11-28 10:18:00,28.3,16.0,30.18,NNW,328,9.0,13.0,61,0.00,,,0.04,weatherlink.com 1.10,2013-11-28 15:18:00,
2013-11-28 10:33:00,28.2,15.0,30.18,NW,314,5.0,11.0,59,0.00,,,0.04,weatherlink.com 1.10,2013-11-28 15:33:00,
2013-11-28 10:48:00,29.2,16.0,30.18,North,5,11.0,21.0,58,0.00,,,0.04,weatherlink.com 1.10,2013-11-28 15:48:00,
2013-11-28 11:03:00,28.9,15.0,30.19,NNW,335,8.0,17.0,56,0.00,,,0.04,weatherlink.com 1.10,2013-11-28 16:03:00,
2013-11-28 11:18:00,29.4,16.0,30.19,North,350,8.0,12.0,57,0.00,,,0.04,weatherlink.com 1.10,2013-11-28 16:18:00,
2013-11-28 11:33:00,30.0,15.0,30.19,North,355,13.0,18.0,55,0.00,,,0.04,weatherlink.com 1.10,2013-11-28 16:33:00,
2013-11-28 11:48:00,29.7,13.0,30.19,NE,38,7.0,20.0,51,0.00,,,0.04,weatherlink.com 1.10,2013-11-28 16:48:00,
2013-11-28 12:04:00,29.7,13.0,30.19,NW,307,10.0,19.0,51,0.00,,,0.04,weatherlink.com 1.10,2013-11-28 17:04:00,
2013-11-28 12:19:00,30.5,15.0,30.19,NNW,343,6.0,14.0,52,0.00,,,0.04,weatherlink.com 1.10,2013-11-28 17:19:00,
2013-11-28 12:34:00,30.0,13.0,30.20,NNW,340,13.0,18.0,50,0.00,,,0.04,weatherlink.com 1.10,2013-11-28 17:34:00,
2013-11-28 12:49:00,30.4,15.0,30.21,NW,325,16.0,16.0,52,0.00,,,0.04,weatherlink.com 1.10,2013-11-28 17:49:00,
2013-11-28 13:04:00,30.6,14.0,30.21,NNW,346,6.0,20.0,51,0.00,,,0.04,weatherlink.com 1.10,2013-11-28 18:04:00,
2013-11-28 13:19:00,30.6,13.0,30.21,North,9,9.0,17.0,49,0.00,,,0.04,weatherlink.com 1.10,2013-11-28 18:19:00,
2013-11-28 13:34:00,30.6,14.0,30.21,NNW,343,7.0,17.0,50,0.00,,,0.04,weatherlink.com 1.10,2013-11-28 18:34:00,
2013-11-28 13:49:00,30.8,14.0,30.21,NNW,331,13.0,15.0,51,0.00,,,0.04,weatherlink.com 1.10,2013-11-28 18:49:00,
2013-11-28 14:04:00,30.7,13.0,30.21,NW,322,4.0,15.0,49,0.00,,,0.04,weatherlink.com 1.10,2013-11-28 19:04:00,
2013-11-28 14:19:00,30.3,14.0,30.21,North,355,9.0,13.0,50,0.00,,,0.04,weatherlink.com 1.10,2013-11-28 19:19:00,
2013-11-28 14:34:00,30.6,13.0,30.22,NNE,13,14.0,15.0,49,0.00,,,0.04,weatherlink.com 1.10,2013-11-28 19:34:00,
2013-11-28 14:49:00,30.1,12.0,30.23,North,355,8.0,15.0,47,0.00,,,0.04,weatherlink.com 1.10,2013-11-28 19:49:00,
2013-11-28 15:04:00,29.9,12.0,30.23,NW,325,6.0,16.0,48,0.00,,,0.04,weatherlink.com 1.10,2013-11-28 20:04:00,
2013-11-28 15:19:00,30.0,12.0,30.24,NNW,328,4.0,14.0,48,0.00,,,0.04,weatherlink.com 1.10,2013-11-28 20:19:00,
2013-11-28 15:34:00,29.7,12.0,30.25,North,350,6.0,17.0,47,0.00,,,0.04,weatherlink.com 1.10,2013-11-28 20:34:00,
2013-11-28 15:49:00,29.2,11.0,30.26,North,360,5.0,12.0,47,0.00,,,0.04,weatherlink.com 1.10,2013-11-28 20:49:00,
2013-11-28 16:04:00,28.8,11.0,30.27,NNW,347,5.0,13.0,47,0.00,,,0.04,weatherlink.com 1.10,2013-11-28 21:04:00,
2013-11-28 16:19:00,28.3,11.0,30.28,NW,323,7.0,10.0,48,0.00,,,0.04,weatherlink.com 1.10,2013-11-28 21:19:00,
2013-11-28 16:34:00,27.5,10.0,30.29,North,350,8.0,10.0,49,0.00,,,0.04,weatherlink.com 1.10,2013-11-28 21:34:00,
2013-11-28 16:49:00,27.0,11.0,30.30,North,5,5.0,11.0,50,0.00,,,0.04,weatherlink.com 1.10,2013-11-28 21:49:00,
2013-11-28 17:04:00,26.7,10.0,30.31,North,355,6.0,9.0,50,0.00,,,0.04,weatherlink.com 1.10,2013-11-28 22:04:00,
2013-11-28 17:19:00,26.3,10.0,30.32,NNW,347,3.0,8.0,51,0.00,,,0.04,weatherlink.com 1.10,2013-11-28 22:19:00,
2013-11-28 17:34:00,26.1,11.0,30.33,NNW,348,4.0,8.0,52,0.00,,,0.00,weatherlink.com 1.10,2013-11-28 22:34:00,
2013-11-28 17:49:00,25.8,11.0,30.35,NNW,340,2.0,6.0,53,0.00,,,0.00,weatherlink.com 1.10,2013-11-28 22:49:00,
2013-11-28 18:04:00,25.5,11.0,30.35,NNW,340,1.0,4.0,54,0.00,,,0.00,weatherlink.com 1.10,2013-11-28 23:04:00,
2013-11-28 18:19:00,25.0,11.0,30.36,NNW,340,0.0,0.0,55,0.00,,,0.00,weatherlink.com 1.10,2013-11-28 23:19:00,
2013-11-28 18:35:00,24.4,11.0,30.36,NNW,340,0.0,1.0,56,0.00,,,0.00,weatherlink.com 1.10,2013-11-28 23:35:00,
2013-11-28 18:55:00,23.7,11.0,30.37,NNW,340,0.0,0.0,59,0.00,,,0.00,weatherlink.com 1.10,2013-11-28 23:55:00,
2013-11-28 19:05:00,23.3,11.0,30.38,NNW,340,0.0,0.0,59,0.00,,,0.00,weatherlink.com 1.10,2013-11-29 00:05:00,
2013-11-28 19:20:00,22.9,11.0,30.39,NNW,340,0.0,0.0,60,0.00,,,0.00,weatherlink.com 1.10,2013-11-29 00:20:00,
2013-11-28 19:35:00,22.7,11.0,30.39,NNW,340,0.0,0.0,61,0.00,,,0.00,weatherlink.com 1.10,2013-11-29 00:35:00,
2013-11-28 19:50:00,22.5,11.0,30.39,NNW,340,0.0,0.0,62,0.00,,,0.00,weatherlink.com 1.10,2013-11-29 00:50:00,
2013-11-28 20:05:00,22.4,11.0,30.40,NNW,340,0.0,0.0,62,0.00,,,0.00,weatherlink.com 1.10,2013-11-29 01:05:00,
2013-11-28 20:20:00,22.3,11.0,30.40,NNW,340,0.0,0.0,62,0.00,,,0.00,weatherlink.com 1.10,2013-11-29 01:20:00,
2013-11-28 20:35:00,22.4,12.0,30.40,NNW,340,0.0,0.0,64,0.00,,,0.00,weatherlink.com 1.10,2013-11-29 01:35:00,
2013-11-28 20:50:00,22.5,13.0,30.41,NNW,340,0.0,0.0,66,0.00,,,0.00,weatherlink.com 1.10,2013-11-29 01:50:00,
2013-11-28 21:05:00,22.5,14.0,30.41,NNW,340,0.0,0.0,69,0.00,,,0.00,weatherlink.com 1.10,2013-11-29 02:05:00,
2013-11-28 21:20:00,22.6,15.0,30.41,NNW,340,3.0,3.0,73,0.00,,,0.00,weatherlink.com 1.10,2013-11-29 02:20:00,
2013-11-28 21:35:00,22.7,16.0,30.41,NNW,340,1.0,3.0,74,0.00,,,0.00,weatherlink.com 1.10,2013-11-29 02:35:00,
2013-11-28 21:50:00,22.9,15.0,30.41,NNW,340,1.0,3.0,73,0.00,,,0.00,weatherlink.com 1.10,2013-11-29 02:50:00,
2013-11-28 22:05:00,23.3,16.0,30.41,NNW,340,3.0,3.0,72,0.00,,,0.00,weatherlink.com 1.10,2013-11-29 03:05:00,
2013-11-28 22:20:00,23.6,15.0,30.42,SSW,213,4.0,4.0,71,0.00,,,0.00,weatherlink.com 1.10,2013-11-29 03:20:00,
2013-11-28 22:35:00,23.9,14.0,30.43,SSW,213,6.0,6.0,66,0.00,,,0.00,weatherlink.com 1.10,2013-11-29 03:35:00,
2013-11-28 22:50:00,24.4,14.0,30.43,SSW,213,2.0,4.0,64,0.00,,,0.00,weatherlink.com 1.10,2013-11-29 03:50:00,
2013-11-28 23:05:00,24.6,14.0,30.43,West,269,1.0,4.0,65,0.00,,,0.00,weatherlink.com 1.10,2013-11-29 04:05:00,
2013-11-28 23:20:00,24.7,14.0,30.43,West,269,2.0,4.0,65,0.00,,,0.00,weatherlink.com 1.10,2013-11-29 04:20:00,
2013-11-28 23:35:00,24.8,15.0,30.44,SW,229,2.0,5.0,65,0.00,,,0.00,weatherlink.com 1.10,2013-11-29 04:35:00,
2013-11-28 23:50:00,24.9,15.0,30.44,SW,229,2.0,3.0,66,0.00,,,0.00,weatherlink.com 1.10,2013-11-29 04:50:00,